Regional Weather Roundup
Issued by NWS

Home | Current Version | Previous Version | Graphics & Text | Print | Product List | Glossary On
Versions: 1 2 3 4 5 6 7 8 9 10 11 12 13 14 15 16 17 18 19 20 21 22 23 24 25 26 27 28 29 30 31 32 33 34 35 36 37 38 39 40 41 42 43 44 45 46 47 48 49 50
000
ASUS43 KLMK 181510
RWRKY
KENTUCKY REGIONAL WEATHER ROUNDUP
NATIONAL WEATHER SERVICE LOUISVILLE KY
1100 AM EDT FRI APR 18 2014

NOTE "FAIR" INDICATES FEW OR NO CLOUDS BELOW 12,000 FEET
WITH NO SIGNIFICANT WEATHER AND/OR OBSTRUCTIONS TO VISIBILITY.

KYZ001>023-026-027-061>063-070>075-181600-
WESTERN AND SOUTH CENTRAL KENTUCKY

CITY           SKY/WX    TMP DP  RH WIND       PRES   REMARKS
PADUCAH        SUNNY     65  46  50 CALM      30.28S
HENDERSON      SUNNY     61  41  48 CALM      30.29S
OWENSBORO      MOSUNNY   62  46  55 SW6       30.31R
HOPKINSVILLE   PTSUNNY   64  46  52 VRB7      30.29R
BOWLING GREEN  PTSUNNY   62  42  47 SW3       30.32R
GLASGOW        CLOUDY    61  40  46 S3        30.32R
$$

KYZ024-025-028>034-038-045-046-053-181600-
NORTH CENTRAL KENTUCKY

CITY           SKY/WX    TMP DP  RH WIND       PRES   REMARKS
LOUISVILLE/SDF PTSUNNY   61  39  44 S3        30.31S
LOUISVILLE/LOU PTSUNNY   63  40  42 S5        30.31S
FORT KNOX      PTSUNNY   63  43  48 S6        30.30R
$$

KYZ035>037-039>044-047>052-055>060-089>105-181600-
NORTHEAST KENTUCKY

CITY           SKY/WX    TMP DP  RH WIND       PRES   REMARKS
LEXINGTON      CLOUDY    61  43  51 W8        30.32S
COVINGTON      PTSUNNY   63  39  41 W3        30.30S
FRANKFORT      CLOUDY    61  42  49 S5        30.31S
$$

KYZ054-064>069-076>088-106>120-181600-
SOUTHEAST KENTUCKY

CITY           SKY/WX    TMP DP  RH WIND       PRES   REMARKS
JACKSON        CLOUDY    58  30  34 CALM      30.34R
LONDON         CLOUDY    58  32  37 S5        30.34R
SOMERSET       CLOUDY    57  37  47 SW5       30.35S
MIDDLESBORO    CLOUDY    57  30  35 E3        30.36S
MONTICELLO     CLOUDY    60  43  53 SE5       30.35S
$$




USA.gov is the U.S. government's official web portal to all federal, state and local government web resources and services.